カタログに戻る

BREEZE-M DEB

TANK

運用中HEO
NORAD 41312·DEBRIS·🇷🇺 Russia

打ち上げ Jan 29, 2016 から Baikonur Cosmodrome

Loading…

次のパス (今後24時間)

TLE

最新Source: Space-Track

元期: Sep 14, 2026, 13:06 UTC

1 41312U 16005C   26257.54622058  .00004647  00000-0  11754-2 0  9998
2 41312  49.4674  26.4983 5784388 119.9694 309.4242  4.35228934163544

AllMySatでBREEZE-M DEBをリアルタイム追跡

Download on the App Store